User: anonymous   Login
Location: *
(46.1200°N, 11.2700°E)
Time: 01:15:37
(UTC+00:00)
Language:

Okean 1-7 - Orbit

View from above orbital plane
View from above orbital plane
View from above satellite
View from above satellite

Ground track
Ground track

The orbit data is extracted from the following two-line orbital elements,

1 23317U 94066A   21127.55791233  .00000172  00000-0  15958-4 0  9991
2 23317  82.5399 222.0851 0020440  33.1438 327.1056 14.87912376437114
Epoch (UTC): 07 May 2021 13:23:23
Eccentricity: 0.0020440
inclination: 82.5399°
perigee height: 590 km
apogee height: 619 km
right ascension of ascending node: 222.0851°
argument of perigee: 33.1438°
revolutions per day: 14.87912376
mean anomaly at epoch: 327.1056°
orbit number at epoch: 43711

The dashed part of the orbit path shows where the satellite is in the earth's shadow,  

DLR